Powrót do katalogu

STARLINK-38106

AktywnyŁącznośćVLEO
NORAD 100014·PAYLOAD·🇺🇸 United States

Wystrzelony Jul 14, 2026 z Vandenberg Space Force Base

Loading…

Następne Przeloty (najbliższe 24 godziny)

TLE

ŚwieżeSource: Space-Track

Epoka: Sep 14, 2026, 11:01 UTC

1 A0014U 26160P   26257.45919628 -.00637468  00000-0 -43258-2 0  9996
2 A0014  70.0016 211.8918 0003293 258.6644 101.4185 15.76411547 11040

Śledź STARLINK-38106 w czasie rzeczywistym z AllMySat

Download on the App Store